When you browse on this site, cookies collect data to enhance your experience and personalize the content and advertising you see.
Visit our Privacy Policy to learn more. By continuing to use the site, you agree to this use of cookies and data.
  • In United Kingdom
  • List of Countries
  • For 7 days
  • Water Temperature
  • Satellite Maps
  • Weather Map
  • Weather Widgets
  • user-avatar
    Login

    Hourly Weather Antwerp

    Today, 21 July, Sunday

    Time Temperature Precipitation Wind Pressure Humidity
    00:00 +17°C° 0 mm 3 mps 761 mmHg 82%
    01:00 +16°C° 0 mm 3 mps 761 mmHg 85%
    02:00 +16°C° 0 mm 3 mps 761 mmHg 88%
    03:00 +14°C° 0 mm 3 mps 762 mmHg 91%
    04:00 +16°C° 0 mm 3 mps 762 mmHg 89%
    05:00 +17°C° 0 mm 3 mps 762 mmHg 88%
    06:00 +17°C° 0 mm 3 mps 763 mmHg 86%
    07:00 +19°C° 0 mm 3 mps 763 mmHg 79%
    08:00 +21°C° 0 mm 3 mps 764 mmHg 72%
    09:00 +22°C° 0 mm 3 mps 765 mmHg 66%
    10:00 +24°C° 0.1 mm 3 mps 765 mmHg 62%
    11:00 +24°C° 0.1 mm 3 mps 765 mmHg 59%
    12:00 +24°C° 0.1 mm 3 mps 765 mmHg 56%
    13:00 +25°C° 0 mm 4 mps 765 mmHg 55%
    14:00 +25°C° 0 mm 4 mps 765 mmHg 55%
    15:00 +25°C° 0 mm 4 mps 766 mmHg 54%
    16:00 +24°C° 0 mm 3 mps 766 mmHg 56%
    17:00 +24°C° 0 mm 3 mps 766 mmHg 58%
    18:00 +23°C° 0 mm 2 mps 766 mmHg 61%
    19:00 +20°C° 0 mm 2 mps 766 mmHg 65%
    20:00 +20°C° 0 mm 1 mps 766 mmHg 69%
    21:00 +18°C° 0 mm 1 mps 767 mmHg 73%
    22:00 +18°C° 0 mm 1 mps 767 mmHg 74%
    23:00 +18°C° 0 mm 1 mps 766 mmHg 74%

    Tomorrow, 22 July, Monday

    Time Temperature Precipitation Wind Pressure Humidity
    00:00 +17°C° 0 mm 2 mps 766 mmHg 74%
    01:00 +17°C° 0 mm 2 mps 766 mmHg 74%
    02:00 +16°C° 0 mm 2 mps 766 mmHg 74%
    03:00 +16°C° 0 mm 2 mps 766 mmHg 74%
    04:00 +17°C° 0 mm 2 mps 766 mmHg 73%
    05:00 +17°C° 0 mm 3 mps 766 mmHg 73%
    06:00 +18°C° 0 mm 3 mps 766 mmHg 72%
    07:00 +19°C° 0 mm 3 mps 767 mmHg 66%
    08:00 +21°C° 0 mm 3 mps 767 mmHg 61%
    09:00 +24°C° 0 mm 3 mps 767 mmHg 55%
    10:00 +25°C° 0 mm 3 mps 767 mmHg 51%
    11:00 +26°C° 0 mm 3 mps 767 mmHg 46%
    12:00 +28°C° 0 mm 3 mps 767 mmHg 42%
    13:00 +28°C° 0 mm 3 mps 766 mmHg 41%
    14:00 +29°C° 0 mm 3 mps 766 mmHg 40%
    15:00 +30°C° 0 mm 2 mps 766 mmHg 39%
    16:00 +29°C° 0 mm 2 mps 766 mmHg 45%
    17:00 +28°C° 0 mm 2 mps 766 mmHg 52%
    18:00 +26°C° 0 mm 2 mps 766 mmHg 58%
    19:00 +25°C° 0 mm 2 mps 766 mmHg 62%
    20:00 +23°C° 0 mm 2 mps 766 mmHg 67%
    21:00 +21°C° 0 mm 1 mps 767 mmHg 72%
    22:00 +21°C° 0 mm 1 mps 767 mmHg 72%
    23:00 +20°C° 0 mm 1 mps 766 mmHg 72%

    Day after tomorrow, 23 July, Tuesday

    Time Temperature Precipitation Wind Pressure Humidity
    00:00 +20°C° 0 mm 1 mps 766 mmHg 73%
    01:00 +20°C° 0 mm 1 mps 766 mmHg 74%
    02:00 +20°C° 0 mm 1 mps 766 mmHg 76%
    03:00 +19°C° 0 mm 1 mps 766 mmHg 78%
    04:00 +20°C° 0 mm 1 mps 766 mmHg 75%
    05:00 +21°C° 0 mm 1 mps 765 mmHg 73%
    06:00 +22°C° 0 mm 1 mps 765 mmHg 70%
    07:00 +24°C° 0 mm 2 mps 765 mmHg 63%
    08:00 +26°C° 0 mm 2 mps 765 mmHg 57%
    09:00 +28°C° 0 mm 2 mps 765 mmHg 50%
    10:00 +29°C° 0 mm 2 mps 764 mmHg 46%
    11:00 +31°C° 0 mm 3 mps 764 mmHg 42%
    12:00 +33°C° 0 mm 3 mps 764 mmHg 38%
    13:00 +33°C° 0 mm 3 mps 763 mmHg 37%
    14:00 +34°C° 0 mm 3 mps 763 mmHg 36%
    15:00 +34°C° 0 mm 3 mps 762 mmHg 35%
    16:00 +33°C° 0 mm 3 mps 762 mmHg 40%
    17:00 +33°C° 0 mm 3 mps 762 mmHg 44%
    18:00 +31°C° 0 mm 3 mps 762 mmHg 49%
    19:00 +29°C° 0 mm 3 mps 762 mmHg 52%
    20:00 +27°C° 0 mm 3 mps 762 mmHg 56%
    21:00 +25°C° 0 mm 4 mps 762 mmHg 59%
    22:00 +25°C° 0 mm 3 mps 761 mmHg 61%
    23:00 +24°C° 0 mm 3 mps 761 mmHg 62%

    24 July, Wednesday

    Time Temperature Precipitation Wind Pressure Humidity
    00:00 +24°C° 0 mm 3 mps 761 mmHg 64%
    01:00 +22°C° 0 mm 3 mps 760 mmHg 64%
    02:00 +22°C° 0 mm 3 mps 760 mmHg 63%
    03:00 +22°C° 0 mm 3 mps 760 mmHg 63%
    04:00 +22°C° 0 mm 3 mps 760 mmHg 63%
    05:00 +24°C° 0 mm 3 mps 760 mmHg 64%
    06:00 +25°C° 0 mm 3 mps 760 mmHg 64%
    07:00 +27°C° 0 mm 3 mps 759 mmHg 59%
    08:00 +29°C° 0 mm 3 mps 759 mmHg 53%
    09:00 +31°C° 0 mm 3 mps 759 mmHg 48%
    10:00 +34°C° 0 mm 3 mps 759 mmHg 43%
    11:00 +36°C° 0 mm 3 mps 759 mmHg 38%
    12:00 +38°C° 0 mm 3 mps 759 mmHg 33%
    13:00 +38°C° 0 mm 3 mps 759 mmHg 32%
    14:00 +39°C° 0 mm 3 mps 759 mmHg 32%
    15:00 +39°C° 0 mm 3 mps 759 mmHg 31%
    16:00 +37°C° 0 mm 3 mps 759 mmHg 40%
    17:00 +34°C° 0 mm 3 mps 759 mmHg 48%
    18:00 +32°C° 0 mm 4 mps 759 mmHg 57%
    19:00 +29°C° 0.1 mm 3 mps 759 mmHg 61%
    20:00 +27°C° 0.1 mm 3 mps 759 mmHg 66%
    21:00 +25°C° 0.1 mm 2 mps 760 mmHg 70%
    22:00 +25°C° 0 mm 1 mps 760 mmHg 71%
    23:00 +24°C° 0 mm 1 mps 760 mmHg 72%

    25 July, Thursday

    Time Temperature Precipitation Wind Pressure Humidity
    00:00 +22°C° 0 mm 0 mps 760 mmHg 73%
    01:00 +24°C° 0 mm 1 mps 760 mmHg 73%
    02:00 +24°C° 0 mm 1 mps 759 mmHg 73%
    03:00 +24°C° 0 mm 1 mps 759 mmHg 73%
    04:00 +25°C° 0 mm 2 mps 759 mmHg 70%
    05:00 +26°C° 0 mm 2 mps 759 mmHg 68%
    06:00 +27°C° 0 mm 3 mps 759 mmHg 65%
    07:00 +30°C° 0 mm 3 mps 759 mmHg 58%
    08:00 +33°C° 0 mm 3 mps 759 mmHg 50%
    09:00 +36°C° 0 mm 4 mps 759 mmHg 43%
    10:00 +37°C° 0 mm 4 mps 759 mmHg 38%
    11:00 +39°C° 0 mm 3 mps 758 mmHg 34%
    12:00 +42°C° 0 mm 3 mps 758 mmHg 29%
    13:00 +42°C° 0 mm 4 mps 758 mmHg 28%
    14:00 +42°C° 0 mm 4 mps 757 mmHg 26%
    15:00 +43°C° 0 mm 4 mps 757 mmHg 24%
    16:00 +41°C° 0 mm 4 mps 756 mmHg 28%
    17:00 +40°C° 0 mm 5 mps 756 mmHg 31%
    18:00 +37°C° 0 mm 5 mps 756 mmHg 35%
    19:00 +35°C° 0 mm 4 mps 756 mmHg 37%
    20:00 +34°C° 0 mm 4 mps 755 mmHg 40%
    21:00 +32°C° 0 mm 4 mps 755 mmHg 43%
    22:00 +30°C° 0 mm 4 mps 755 mmHg 46%
    23:00 +30°C° 0 mm 4 mps 755 mmHg 48%

    26 July, Friday

    Time Temperature Precipitation Wind Pressure Humidity
    00:00 +29°C° 0 mm 4 mps 754 mmHg 51%
    01:00 +28°C° 0 mm 3 mps 754 mmHg 53%
    02:00 +27°C° 0 mm 3 mps 754 mmHg 55%
    03:00 +27°C° 0 mm 2 mps 754 mmHg 56%
    04:00 +26°C° 0 mm 4 mps 754 mmHg 60%
    05:00 +25°C° 0 mm 5 mps 755 mmHg 65%
    06:00 +24°C° 0 mm 7 mps 756 mmHg 69%
    07:00 +24°C° 0.2 mm 6 mps 756 mmHg 68%
    08:00 +25°C° 0.2 mm 5 mps 757 mmHg 68%
    09:00 +26°C° 0.2 mm 5 mps 757 mmHg 67%
    10:00 +25°C° 0.2 mm 5 mps 757 mmHg 68%
    11:00 +25°C° 0.2 mm 4 mps 758 mmHg 69%
    12:00 +25°C° 0.2 mm 4 mps 758 mmHg 71%
    13:00 +25°C° 0.1 mm 5 mps 758 mmHg 66%
    14:00 +26°C° 0.1 mm 5 mps 758 mmHg 61%
    15:00 +26°C° 0.1 mm 6 mps 759 mmHg 56%
    16:00 +26°C° 0 mm 5 mps 759 mmHg 55%
    17:00 +25°C° 0 mm 5 mps 759 mmHg 54%
    18:00 +23°C° 0 mm 4 mps 760 mmHg 54%
    19:00 +22°C° 0 mm 4 mps 760 mmHg 55%
    20:00 +20°C° 0 mm 3 mps 760 mmHg 57%
    21:00 +18°C° 0 mm 2 mps 760 mmHg 59%
    22:00 +18°C° 0 mm 3 mps 760 mmHg 61%
    23:00 +17°C° 0 mm 3 mps 760 mmHg 63%
    Show more